Langdon, ND

10:54 PM CDT on October 19, 2017 (GMT -0500)
Langdon

Weather History for KD55 - March, 2014

Change the Weather History Date:

Monday, March 3, 2014

  Actual Average (KDVL) Record (KDVL)
Temperature  
Mean Temperature -8 °F -  
Max Temperature 6 °F 26 °F 47 °F (1990)
Min Temperature -22 °F 9 °F -14 °F (1960)
Degree Days  
Heating Degree Days 73    
Moisture  
Dew Point -12 °F    
Average Humidity 75    
Maximum Humidity 85    
Minimum Humidity 66    
Precipitation  
Precipitation 0.04 in - - ()
Sea Level Pressure  
Sea Level Pressure 30.22 in    
Wind  
Wind Speed 7 mph (SSW)    
Max Wind Speed 10 mph    
Max Gust Speed -    
Visibility 8 miles    
Events Snow    
Averages and records for this station are not official NWS values.
T = Trace of Precipitation, MM = Missing Value Source: NWS Daily Summary

Daily Weather History Graph

Daily Weather History Graph

Search for Another Location

Airport or City:

Trip Planner

Search our weather history database for the weather conditions in past years. The results will help you decide how hot, cold, wet, or windy it might be!

Date:

Astronomy

Mar. 03, 2014 Rise Set
Actual Time 7:11 AM CST 6:20 PM CST
Civil Twilight 6:39 AM CST 6:52 PM CST
Nautical Twilight 6:03 AM CST 7:28 PM CST
Astronomical Twilight 5:26 AM CST 8:05 PM CST
Moon 8:04 AM CST (3/3) 9:43 PM CST (3/3)
Length of Visible Light 12h 12m
Length of Day
11h 09m
Waxing Crescent, 8% of the Moon is Illuminated
Mar 3
Waxing Crescent
Mar 8
First Quarter
Mar 16
Full
Mar 23
Last Quarter
Mar 30
New

Hourly Weather History & Observations

Time (CST) Temp. Windchill Dew Point Humidity Pressure Visibility Wind Dir Wind Speed Gust Speed Precip Events Conditions
12:15 AM -22.0 °F -43.6 °F -27.4 °F 76% 30.36 in 10.0 mi WSW 10.4 mph - N/A   Clear
12:35 AM -20.2 °F -38.8 °F -27.4 °F 69% 30.35 in 10.0 mi West 8.1 mph - N/A   Clear
12:55 AM -22.0 °F -41.0 °F -27.4 °F 76% 30.35 in 10.0 mi West 8.1 mph - N/A   Clear
1:15 AM -22.0 °F -41.0 °F -29.2 °F 69% 30.35 in 10.0 mi West 8.1 mph - N/A   Clear
1:35 AM -22.0 °F -37.7 °F -27.4 °F 76% 30.35 in 10.0 mi West 5.8 mph - N/A   Clear
1:55 AM -20.2 °F -35.5 °F -27.4 °F 69% 30.34 in 10.0 mi West 5.8 mph - N/A   Clear
2:15 AM -20.2 °F -37.3 °F -25.6 °F 76% 30.34 in 10.0 mi West 6.9 mph - N/A   Clear
2:35 AM -22.0 °F -41.0 °F -29.2 °F 69% 30.33 in 10.0 mi WSW 8.1 mph - N/A   Clear
2:55 AM -22.0 °F -42.3 °F -27.4 °F 76% 30.33 in 10.0 mi WSW 9.2 mph - N/A   Clear
3:15 AM -22.0 °F -39.4 °F -29.2 °F 69% 30.33 in 10.0 mi SW 6.9 mph - N/A   Clear
3:35 AM -20.2 °F -40.1 °F -27.4 °F 69% 30.32 in 10.0 mi SW 9.2 mph - N/A   Clear
3:55 AM -22.0 °F -41.0 °F -27.4 °F 76% 30.32 in 10.0 mi SW 8.1 mph - N/A   Clear
4:15 AM -20.2 °F -37.3 °F -27.4 °F 69% 30.31 in 10.0 mi WSW 6.9 mph - N/A   Clear
4:35 AM -20.2 °F -30.9 °F -27.4 °F 69% 30.31 in 10.0 mi SW 3.5 mph - N/A   Clear
4:55 AM -20.2 °F -35.5 °F -25.6 °F 76% 30.31 in 10.0 mi SW 5.8 mph - N/A   Clear
5:15 AM -18.4 °F -28.9 °F -25.6 °F 70% 30.30 in 10.0 mi SW 3.5 mph - N/A   Clear
5:35 AM -18.4 °F -33.4 °F -23.8 °F 76% 30.30 in 10.0 mi SSW 5.8 mph - N/A   Clear
5:55 AM -18.4 °F -33.4 °F -25.6 °F 70% 30.29 in 10.0 mi SSW 5.8 mph - N/A   Clear
6:15 AM -18.4 °F -35.1 °F -25.6 °F 70% 30.28 in 10.0 mi SSW 6.9 mph - N/A   Clear
6:35 AM -16.6 °F - -23.8 °F 70% 30.28 in 10.0 mi Calm Calm - N/A   Clear
6:55 AM -16.6 °F -29.3 °F -22.0 °F 76% 30.27 in 10.0 mi SSW 4.6 mph - N/A   Clear
7:15 AM -16.6 °F -26.8 °F -22.0 °F 76% 30.26 in 10.0 mi South 3.5 mph - N/A   Clear
7:35 AM -16.6 °F -32.9 °F -22.0 °F 76% 30.26 in 10.0 mi SSW 6.9 mph - N/A   Clear
7:55 AM -13.0 °F -30.0 °F -20.2 °F 70% 30.26 in 10.0 mi SSW 8.1 mph - N/A   Clear
8:15 AM -13.0 °F -27.0 °F -18.4 °F 77% 30.25 in 10.0 mi SW 5.8 mph - N/A   Clear
8:35 AM -11.2 °F -20.6 °F -16.6 °F 77% 30.25 in 10.0 mi SW 3.5 mph - N/A   Clear
8:55 AM -9.4 °F -22.7 °F -16.6 °F 71% 30.26 in 10.0 mi SW 5.8 mph - N/A   Clear
9:15 AM -7.6 °F -22.1 °F -13.0 °F 77% 30.25 in 10.0 mi SW 6.9 mph - N/A   Scattered Clouds
9:35 AM -7.6 °F -22.1 °F -13.0 °F 77% 30.25 in 10.0 mi SW 6.9 mph - N/A   Mostly Cloudy
9:55 AM -4.0 °F -19.0 °F -11.2 °F 71% 30.25 in 10.0 mi SW 8.1 mph - N/A   Overcast
10:15 AM -2.2 °F -15.6 °F -11.2 °F 66% 30.24 in 10.0 mi SW 6.9 mph - N/A   Overcast
10:35 AM -2.2 °F -12.5 °F -9.4 °F 71% 30.24 in 5.0 mi SW 4.6 mph - N/A   Haze
10:55 AM -0.4 °F -12.0 °F -9.4 °F 66% 30.23 in 3.0 mi SW 5.8 mph - N/A Snow Light Snow
11:15 AM -0.4 °F -14.7 °F -7.6 °F 72% 30.23 in 3.0 mi SW 8.1 mph - N/A Snow Light Snow
11:35 AM -0.4 °F -14.7 °F -7.6 °F 72% 30.23 in 1.8 mi SW 8.1 mph - N/A Snow Light Snow
11:55 AM 1.4 °F -12.5 °F -5.8 °F 72% 30.23 in 3.0 mi SW 8.1 mph - N/A Snow Light Snow
12:15 PM 1.4 °F -12.5 °F -4.0 °F 78% 30.22 in 2.5 mi SSW 8.1 mph - N/A Snow Light Snow
12:35 PM 1.4 °F -12.5 °F -4.0 °F 78% 30.21 in 1.5 mi SSW 8.1 mph - N/A Snow Light Snow
12:55 PM 3.2 °F -10.3 °F -4.0 °F 72% 30.20 in 1.5 mi South 8.1 mph - N/A   Haze
1:15 PM 5.0 °F -5.6 °F -4.0 °F 66% 30.19 in 4.0 mi South 5.8 mph - N/A   Haze
1:35 PM 5.0 °F -5.6 °F -4.0 °F 66% 30.19 in 9.0 mi South 5.8 mph - N/A   Overcast
1:55 PM 5.0 °F -5.6 °F -2.2 °F 72% 30.17 in 9.0 mi South 5.8 mph - N/A   Overcast
2:15 PM 5.0 °F -4.1 °F -2.2 °F 72% 30.16 in 8.0 mi SSE 4.6 mph - N/A Snow Light Snow
2:35 PM 6.8 °F -3.5 °F -2.2 °F 67% 30.15 in 5.0 mi SSE 5.8 mph - N/A Snow Light Snow
2:55 PM 5.0 °F -5.6 °F -2.2 °F 72% 30.14 in 3.0 mi SE 5.8 mph - N/A Snow Light Snow
3:15 PM 5.0 °F -6.9 °F -2.2 °F 72% 30.15 in 5.0 mi SSE 6.9 mph - N/A Snow Light Snow
3:35 PM 6.8 °F -5.9 °F -0.4 °F 72% 30.15 in 10.0 mi SE 8.1 mph - N/A   Mostly Cloudy
3:55 PM 6.8 °F -3.5 °F -0.4 °F 72% 30.15 in 10.0 mi SE 5.8 mph - N/A   Overcast
4:15 PM 5.0 °F -5.6 °F -0.4 °F 78% 30.15 in 10.0 mi SSE 5.8 mph - N/A   Overcast
4:35 PM 5.0 °F -5.6 °F -0.4 °F 78% 30.15 in 5.0 mi SE 5.8 mph - N/A Snow Light Snow
4:55 PM 5.0 °F -5.6 °F -0.4 °F 78% 30.15 in 7.0 mi SSE 5.8 mph - N/A Snow Light Snow
5:15 PM 5.0 °F -4.1 °F -0.4 °F 78% 30.15 in 7.0 mi SSE 4.6 mph - N/A Snow Light Snow
5:35 PM 5.0 °F -5.6 °F -0.4 °F 78% 30.14 in 1.5 mi SE 5.8 mph - N/A Snow Light Snow
5:55 PM 5.0 °F -4.1 °F -0.4 °F 78% 30.14 in 2.5 mi SE 4.6 mph - N/A Snow Light Snow
6:15 PM 5.0 °F -2.1 °F -0.4 °F 78% 30.15 in 1.5 mi ESE 3.5 mph - N/A Snow Light Snow
6:35 PM 5.0 °F -2.1 °F -0.4 °F 78% 30.15 in 1.2 mi SE 3.5 mph - 0.01 in Snow Light Snow
6:55 PM 5.0 °F -2.1 °F -0.4 °F 78% 30.15 in 2.0 mi ESE 3.5 mph - 0.03 in Snow Light Snow
7:15 PM 5.0 °F -5.6 °F -0.4 °F 78% 30.15 in 4.0 mi SE 5.8 mph - N/A Snow Light Snow
7:35 PM 5.0 °F -5.6 °F -0.4 °F 78% 30.15 in 1.8 mi SE 5.8 mph - 0.01 in Snow Light Snow
7:55 PM 3.2 °F -6.2 °F -0.4 °F 85% 30.15 in 3.0 mi SSE 4.6 mph - 0.01 in Snow Light Snow
8:15 PM 1.4 °F -9.9 °F -2.2 °F 85% 30.14 in 8.0 mi SSE 5.8 mph - N/A   Overcast
8:35 PM 1.4 °F -6.2 °F -2.2 °F 85% 30.14 in 10.0 mi SSE 3.5 mph - N/A   Overcast
8:55 PM -0.4 °F -10.4 °F -4.0 °F 85% 30.14 in 10.0 mi SSE 4.6 mph - N/A   Overcast
9:15 PM -0.4 °F -12.0 °F -4.0 °F 85% 30.13 in 10.0 mi SSE 5.8 mph - N/A   Mostly Cloudy
9:35 PM -0.4 °F -12.0 °F -5.8 °F 78% 30.14 in 10.0 mi SSE 5.8 mph - N/A   Overcast
9:55 PM -2.2 °F -14.2 °F -7.6 °F 78% 30.14 in 10.0 mi South 5.8 mph - N/A   Mostly Cloudy
10:15 PM -4.0 °F - -7.6 °F 85% 30.14 in 10.0 mi Calm Calm - N/A   Partly Cloudy
10:35 PM -2.2 °F - -7.6 °F 78% 30.15 in 10.0 mi Calm Calm - N/A   Clear
10:55 PM -7.6 °F -18.8 °F -11.2 °F 84% 30.14 in 10.0 mi ENE 4.6 mph - N/A   Clear
11:15 PM -7.6 °F -16.5 °F -13.0 °F 77% 30.14 in 10.0 mi ENE 3.5 mph - N/A   Clear
11:35 PM -9.4 °F -18.6 °F -13.0 °F 84% 30.13 in 10.0 mi East 3.5 mph - N/A   Clear
11:55 PM -9.4 °F -18.6 °F -14.8 °F 77% 30.12 in 10.0 mi East 3.5 mph - N/A   Clear